Wind_Speed
37 37 37 35 34 32 32 30 29 27 26 25 26 27 30 34 37 40 41 42 42 43 44 45 45 44 43 43 43 43 43 43 42 43 44 44 44 44 44 43 43 43 43 42 42 41 42 42 43 43 44 45 46 47 49 52 53 53 53 51 50 49 48 48 48 48 47 47 48 47 46 45 43 42 42 42 41 41 41 40 39 38 37 37 36 35
38 38 38 38 37 36 36 35 34 32 31 30 29 28 28 30 32 36 38 40 41 42 43 44 45 45 45 46 46 45 45 44 43 44 44 44 44 44 44 43 43 43 43 42 41 41 41 42 43 44 45 46 47 49 51 53 54 53 53 52 51 50 50 50 49 49 49 49 49 48 47 46 44 43 43 43 43 42 42 41 41 40 39 38 37 36
35 36 36 37 37 36 37 38 38 37 36 34 33 32 31 31 32 34 36 38 40 41 41 43 44 46 46 47 47 47 46 45 45 45 45 45 44 44 44 45 45 45 44 43 42 42 42 43 44 45 46 47 49 51 53 55 55 54 53 52 51 51 50 50 50 50 49 49 49 49 48 47 45 44 44 44 44 44 43 43 42 41 41 40 39 38
30 31 32 34 34 34 35 36 37 38 38 37 36 35 34 33 33 34 35 37 39 40 41 42 44 45 47 47 48 48 48 47 46 46 46 45 45 45 46 46 47 47 47 46 45 44 44 45 46 48 49 50 51 53 55 56 55 54 53 52 51 51 51 51 50 50 50 50 49 49 48 47 46 45 44 44 44 44 44 43 42 42 42 41 41 40
25 26 27 28 28 28 29 29 31 33 35 36 36 35 34 33 32 33 34 35 37 39 41 43 44 46 47 48 49 49 49 48 48 47 46 46 46 46 47 47 48 49 48 47 46 46 46 47 49 50 51 52 53 54 56 57 56 54 53 52 51 51 51 51 51 51 50 50 49 48 47 46 45 45 45 45 44 43 42 42 41 41 42 41 41 40
25 24 24 23 22 23 23 22 24 26 28 31 33 32 31 30 30 31 31 30 31 33 37 41 43 46 48 49 50 50 50 50 49 48 47 46 46 46 46 47 48 48 48 47 46 46 47 49 51 52 52 52 53 54 56 57 57 55 53 52 51 51 51 51 51 50 50 49 48 47 46 45 45 44 44 44 44 43 41 40 40 40 40 40 39 38
27 26 25 24 23 23 21 21 21 22 24 26 27 28 27 27 27 27 27 25 24 24 28 32 37 41 45 48 50 51 52 51 50 49 47 47 46 46 46 48 49 49 47 46 46 46 48 50 51 52 52 52 53 54 56 57 56 54 53 51 51 51 51 51 50 49 47 46 44 43 42 42 42 43 43 44 43 42 41 40 39 39 39 39 38 37
26 27 26 26 25 24 23 21 21 22 23 24 24 24 23 22 21 20 21 21 20 19 21 25 29 33 36 39 43 46 49 51 51 50 49 48 47 47 48 50 50 50 48 47 47 47 48 49 50 51 52 52 53 55 56 56 55 53 51 50 50 50 50 49 47 45 43 41 40 39 38 38 38 39 40 41 41 41 41 40 39 39 39 38 38 36
24 25 25 25 25 25 24 22 21 22 23 24 25 25 24 22 19 16 14 14 15 16 18 22 25 29 31 33 33 35 39 43 47 50 51 50 50 51 52 52 52 51 49 48 47 47 47 47 48 50 51 52 53 54 55 54 52 51 49 49 49 49 48 46 44 41 39 37 36 35 35 34 34 34 35 36 37 38 38 38 38 38 38 39 38 38
22 23 23 24 24 24 23 22 21 22 23 25 25 25 25 25 23 19 15 12 11 11 11 14 18 21 25 28 28 28 29 32 37 43 48 51 52 53 54 54 53 52 49 48 47 46 45 45 46 48 49 51 52 53 52 51 49 48 47 46 47 46 45 43 41 39 37 36 35 34 34 33 33 32 32 33 33 34 34 35 35 35 36 38 39 39
22 22 23 23 23 22 21 20 20 23 25 25 25 25 24 25 25 25 23 21 19 16 14 14 14 14 14 16 17 19 20 21 24 29 36 43 48 52 54 55 54 52 49 48 46 45 43 43 44 46 47 49 50 50 50 48 47 46 45 45 45 44 42 41 39 39 38 37 36 36 35 34 34 33 33 33 33 33 33 33 33 34 34 35 37 38
22 23 23 22 22 21 20 20 22 24 26 27 27 27 26 26 26 27 29 30 30 28 26 23 19 15 12 10 10 9 11 13 14 16 21 27 34 40 46 50 52 52 50 48 46 44 43 43 43 44 45 46 47 47 47 46 45 45 45 45 45 44 42 41 40 40 40 39 39 39 38 38 37 36 36 35 35 35 35 35 35 35 35 35 35 36
21 22 22 22 22 21 22 23 25 26 27 28 29 29 30 30 30 31 33 34 35 35 34 32 27 20 15 15 16 14 10 9 12 13 15 17 21 25 31 36 41 45 48 48 48 46 44 43 42 43 44 44 45 45 45 44 44 44 45 47 47 47 46 44 43 42 42 43 43 43 42 42 41 40 40 39 39 39 39 39 39 39 39 38 38 36
21 22 23 23 22 22 24 25 27 28 28 29 29 29 31 32 32 33 34 34 35 36 36 35 33 29 22 21 21 20 15 12 11 13 15 17 19 21 25 29 33 37 41 44 47 48 46 45 44 44 44 44 45 45 45 44 45 45 47 48 49 49 49 48 47 46 46 46 46 47 47 46 46 45 44 44 43 43 43 43 43 43 43 43 42 41
22 22 23 23 23 24 25 26 27 28 28 29 29 29 30 32 32 33 34 35 36 36 37 37 36 33 28 26 25 24 21 19 16 14 14 15 16 18 22 27 31 34 36 39 43 46 48 47 47 46 46 46 46 46 46 46 46 47 48 50 50 51 51 51 50 50 49 49 50 51 51 51 51 50 50 49 48 48 48 47 48 48 48 47 47 46
22 22 23 24 24 25 26 26 27 28 29 29 30 30 31 32 33 33 34 35 36 36 37 38 38 36 32 28 26 27 27 26 25 24 22 18 14 13 15 20 27 32 35 36 38 41 45 47 49 49 49 49 48 48 48 48 48 49 50 51 51 51 52 52 52 52 52 52 53 54 55 56 56 56 56 55 54 54 53 53 53 53 53 52 51 51
21 22 23 24 24 25 26 26 27 28 29 30 30 31 31 32 32 33 33 34 34 35 35 35 35 36 36 34 31 30 32 33 34 34 32 27 19 13 11 13 18 24 30 33 36 37 40 43 47 50 51 52 51 51 50 50 51 52 52 53 53 53 54 54 54 55 55 56 57 58 59 61 62 62 62 62 62 61 60 60 60 60 59 58 57 55
21 21 22 23 24 25 26 26 27 28 29 30 30 30 30 31 31 32 32 33 33 33 33 33 33 33 35 37 36 35 35 38 39 40 38 34 27 18 14 12 13 15 19 25 31 34 36 38 42 47 51 54 54 54 54 54 55 56 57 57 58 58 58 59 59 60 61 61 62 63 63 64 66 67 68 68 68 67 67 66 66 66 65 64 62 60
21 21 22 23 24 25 26 27 27 28 29 29 30 30 30 30 30 30 31 31 31 31 32 32 32 33 33 36 37 38 37 38 38 39 39 38 33 26 19 16 16 15 15 17 22 28 33 35 38 42 47 53 57 59 59 59 60 61 62 63 63 64 64 65 65 65 66 66 66 66 67 67 68 68 69 68 68 67 67 68 68 69 68 67 66 65
21 21 21 22 24 25 27 27 28 29 29 29 29 29 29 29 29 29 29 29 30 30 31 31 32 32 33 35 37 37 36 35 35 35 36 37 36 32 26 24 23 23 21 17 17 21 28 31 32 34 38 46 54 59 63 64 64 65 66 66 66 66 65 65 65 65 65 65 66 66 67 67 67 66 65 64 64 64 64 65 66 67 67 67 67 66
21 21 21 21 23 25 27 29 29 29 28 28 28 28 28 28 28 28 28 28 29 29 29 30 31 31 32 34 35 34 33 32 31 31 33 35 36 35 32 29 29 28 27 22 17 15 19 26 30 33 35 39 44 50 56 61 63 64 64 64 63 62 62 61 61 61 61 62 63 64 64 64 64 63 61 60 60 60 60 61 61 62 62 63 63 64
19 20 20 21 23 26 28 29 29 28 27 26 26 26 26 26 27 27 27 27 27 27 28 29 29 30 31 32 32 31 29 27 25 25 28 32 35 36 34 33 32 32 31 27 22 18 17 20 26 31 35 37 38 41 45 50 53 56 57 56 56 56 56 56 57 57 58 59 60 61 61 61 61 60 59 58 57 57 57 57 57 57 57 57 58 59
17 20 22 23 25 27 28 28 27 26 25 25 24 24 24 24 25 25 25 25 25 26 26 27 28 29 29 29 28 27 25 22 20 21 24 28 33 36 36 35 34 34 33 30 27 25 22 19 20 25 31 35 36 37 39 42 45 47 48 48 48 48 49 50 51 53 54 56 57 58 58 59 59 58 58 57 56 55 55 54 54 53 53 53 54 54
20 22 24 25 25 26 25 25 24 24 23 23 23 23 23 23 23 23 23 24 24 24 25 26 27 27 26 26 25 24 22 20 19 20 23 26 30 34 34 33 32 31 32 31 30 29 27 23 19 18 23 28 31 33 36 38 40 41 42 43 43 43 44 45 47 48 50 52 54 55 56 57 57 58 57 56 56 55 54 54 53 52 51 50 50 50
23 25 25 24 23 22 22 21 21 21 21 21 21 21 21 22 22 23 23 23 23 23 23 23 24 24 24 23 23 23 22 20 19 19 21 24 27 28 28 27 25 25 28 29 29 29 27 24 19 15 14 18 23 28 32 35 37 38 39 40 40 41 41 42 43 45 47 49 51 53 54 55 56 56 56 56 55 55 54 53 52 51 50 48 47 47
25 25 24 22 21 19 18 18 18 18 18 18 18 18 19 21 23 23 23 22 22 21 21 21 22 23 23 22 22 22 21 20 18 17 17 20 23 24 22 21 21 22 25 27 28 27 25 22 18 14 11 11 15 21 27 30 33 34 36 37 38 39 40 41 42 43 45 47 49 51 52 53 54 55 55 55 55 54 53 52 51 49 48 47 46 47
25 24 22 20 18 17 16 16 16 16 16 15 15 16 18 20 22 22 22 21 21 20 20 21 22 23 23 22 22 21 20 19 17 15 15 17 20 22 21 20 20 22 24 26 26 25 23 21 17 14 14 12 11 13 18 23 27 30 32 35 36 38 40 41 42 44 45 46 48 49 50 51 52 53 53 53 53 53 52 50 49 47 46 46 46 47
25 23 21 19 17 16 16 15 15 15 15 14 14 15 16 18 19 19 19 20 20 20 20 20 21 23 23 23 24 23 20 17 15 14 14 15 18 20 21 20 20 22 24 26 26 25 23 21 19 17 17 16 12 7 9 13 18 23 27 30 32 35 38 40 42 44 46 47 48 49 50 50 51 52 52 52 52 52 51 49 48 47 47 47 48 48
26 23 21 19 18 17 16 15 14 14 14 13 13 14 15 16 16 16 18 19 20 19 19 20 21 22 24 25 26 25 21 16 14 14 15 17 20 22 22 21 21 22 23 25 27 27 26 24 23 23 24 20 13 7 3 3 7 12 16 20 24 27 31 35 38 41 43 45 47 47 48 49 49 50 50 50 50 50 49 48 48 48 49 49 49 49
26 24 22 21 20 19 18 17 15 14 14 13 13 13 13 13 14 14 15 17 17 18 19 20 21 22 24 25 26 25 21 18 17 17 18 21 24 25 24 24 23 22 22 25 27 28 28 26 26 27 29 26 19 11 6 4 3 4 6 10 13 17 20 24 28 32 36 38 40 42 43 44 44 45 45 45 45 45 45 46 46 48 49 49 50 50
27 26 24 22 21 21 20 19 18 17 15 14 13 12 12 12 12 12 13 14 15 16 18 19 20 21 22 24 23 22 21 23 24 23 22 24 26 26 26 26 25 23 20 23 26 28 28 28 28 29 30 30 27 21 16 13 11 9 6 6 7 10 12 16 19 23 26 29 32 34 36 37 38 39 39 39 40 40 41 42 43 45 46 47 48 49
26 25 24 22 22 21 21 20 20 19 17 16 14 13 12 11 11 11 11 12 13 14 17 18 20 20 21 22 22 23 25 27 27 26 24 25 26 26 25 26 26 25 22 22 23 25 25 27 29 30 30 31 30 29 26 23 20 18 15 12 9 8 8 10 14 17 20 22 25 28 30 32 34 35 36 36 37 38 39 40 41 43 44 45 46 47
25 24 23 22 21 21 21 20 20 20 19 18 16 15 13 12 11 11 11 11 12 13 15 17 19 20 21 22 23 25 27 28 26 25 23 23 24 24 24 24 25 26 25 25 25 24 24 27 29 29 29 30 31 31 30 28 25 22 20 18 17 14 11 9 9 12 15 18 21 24 27 29 31 33 35 36 37 38 38 39 40 41 43 44 45 46
24 23 22 22 21 21 21 21 20 20 19 18 17 16 15 14 12 11 11 11 12 12 13 15 18 20 21 23 25 26 27 27 25 22 20 19 19 20 22 22 23 24 25 26 26 27 27 28 29 29 29 28 28 27 27 26 24 22 21 20 19 18 16 13 10 9 10 13 17 20 24 26 29 31 33 35 36 37 37 38 38 39 40 41 42 43
23 22 22 22 22 22 22 21 21 20 19 19 18 18 17 16 15 13 12 12 12 12 13 14 16 17 19 22 24 26 27 26 23 20 17 15 15 17 19 20 20 21 22 24 25 26 27 28 29 29 29 29 27 24 23 21 21 20 19 19 19 18 17 16 14 12 10 9 11 15 19 22 25 28 30 32 33 35 35 36 36 36 36 37 38 39
22 22 22 22 23 23 23 23 22 21 20 20 19 19 18 18 17 16 15 14 13 13 13 14 15 16 17 19 21 24 25 25 22 19 15 12 13 16 19 20 19 18 19 20 22 23 24 26 27 28 28 28 28 25 22 20 18 18 18 18 18 17 17 16 15 14 12 10 9 9 12 16 20 23 26 28 30 31 32 33 33 33 33 33 34 36
22 22 23 23 23 24 24 23 23 22 21 21 20 20 19 19 19 18 18 16 15 14 14 14 14 15 15 17 18 20 22 22 20 17 13 10 11 15 19 19 18 16 17 18 19 20 21 23 25 25 25 26 27 26 25 22 19 18 18 18 17 17 17 17 16 16 15 14 12 9 9 11 15 18 22 24 26 27 29 30 30 30 30 31 31 32
23 24 24 24 24 24 25 24 23 23 22 22 21 21 20 20 20 20 19 19 18 17 16 15 15 14 14 15 15 17 17 18 17 15 12 10 11 14 17 18 17 16 16 16 17 18 19 21 23 24 25 25 25 25 25 24 22 20 19 18 18 18 18 18 17 17 18 18 16 13 10 9 11 13 16 19 20 22 24 26 28 28 28 29 29 30
24 25 25 25 25 25 25 24 24 23 22 22 22 21 21 21 21 20 20 20 20 19 18 17 16 15 14 14 13 14 14 14 14 12 11 10 11 13 15 17 18 17 16 16 16 17 18 19 21 23 24 25 25 25 25 24 23 22 20 19 19 19 19 19 18 19 20 20 19 17 14 10 9 9 11 12 14 16 20 23 25 27 27 27 28 28
25 26 26 25 25 24 24 24 24 23 23 22 22 21 21 21 21 21 21 21 21 20 20 19 19 18 16 15 14 13 12 12 12 11 10 10 11 12 14 16 17 18 18 17 17 17 18 20 21 21 22 23 24 24 24 23 23 22 21 20 20 21 21 20 19 19 19 20 21 20 18 15 11 9 9 9 10 13 16 19 23 25 26 27 28 28
26 26 27 26 25 25 25 24 24 23 23 23 22 22 22 23 23 23 23 22 22 22 22 22 21 20 19 17 15 14 13 11 10 10 9 9 9 10 12 14 15 17 18 19 19 19 20 21 22 23 23 23 23 23 22 22 21 20 19 19 20 21 21 20 19 18 18 19 20 22 22 20 17 14 12 11 11 11 14 16 19 22 25 27 28 29
26 26 26 26 26 26 25 24 24 24 23 23 23 23 24 24 24 25 25 25 25 25 25 25 25 24 23 21 19 16 15 13 10 9 8 7 7 7 8 10 12 13 15 17 18 19 20 21 22 24 25 24 24 24 24 23 21 19 18 18 19 20 21 22 21 19 17 17 19 21 22 22 22 20 18 16 14 12 12 14 17 20 22 25 27 29
26 26 26 26 26 26 25 25 25 25 25 24 24 24 24 25 25 25 26 26 27 26 26 26 26 26 25 25 23 21 18 15 12 9 7 7 7 7 7 8 9 10 12 14 16 17 19 21 22 23 24 24 25 25 26 25 23 21 18 17 17 19 21 22 21 19 17 17 17 18 20 21 22 23 23 21 18 14 12 12 14 17 20 23 26 28
26 27 26 26 26 26 26 26 26 26 26 26 26 26 25 25 26 26 26 27 27 27 27 27 27 27 26 26 26 24 22 18 15 11 7 6 7 8 9 9 9 9 10 13 15 16 17 19 20 21 22 23 24 25 26 26 25 23 20 18 17 19 20 21 21 19 18 16 16 16 17 18 20 23 24 24 21 17 13 12 12 15 18 21 24 27
27 27 27 27 26 27 27 27 27 27 27 27 27 27 27 27 27 27 27 27 28 28 27 28 28 28 28 28 28 27 26 23 19 15 10 7 7 9 10 12 12 12 11 12 13 15 16 17 18 19 20 21 22 23 24 25 24 23 20 18 17 17 20 22 23 22 20 18 17 16 17 17 19 21 23 24 23 20 17 14 13 13 16 19 23 26
27 27 27 27 27 28 28 28 28 28 28 28 28 27 27 28 28 27 27 28 28 29 28 28 27 28 28 29 29 29 29 27 25 21 17 13 10 10 11 13 14 15 15 15 14 15 16 17 17 18 18 19 20 21 22 23 23 22 21 18 16 15 16 18 20 21 21 20 19 19 19 18 19 20 22 23 24 23 20 17 15 15 15 17 21 25
27 28 28 28 28 28 28 28 28 29 29 29 29 28 28 28 28 28 28 28 29 29 29 28 28 28 28 28 28 29 29 30 29 27 25 21 17 14 13 13 15 16 17 18 17 17 16 16 16 16 17 17 18 19 20 21 22 22 21 20 18 16 15 14 15 16 18 19 20 20 19 18 17 17 20 22 23 24 22 20 18 17 17 19 21 24
27 28 28 28 29 29 29 29 29 30 30 30 30 29 29 29 29 29 29 29 29 30 30 30 29 29 28 28 28 28 28 29 29 30 29 28 25 22 19 17 16 16 16 17 18 18 18 17 16 16 15 15 15 15 16 18 18 19 20 21 20 19 17 15 13 13 14 16 18 19 18 17 16 16 18 20 22 23 23 21 20 19 19 21 23 25
27 27 28 28 29 29 30 30 30 30 31 31 31 30 30 29 29 29 30 30 30 30 31 30 30 30 30 29 29 28 28 29 29 30 30 30 29 27 25 23 21 19 18 17 17 17 17 17 16 14 13 12 11 12 13 14 15 16 18 19 21 21 20 19 16 14 13 13 15 16 17 17 16 15 16 19 21 22 22 21 20 20 21 22 25 27
26 27 27 28 28 29 30 30 30 30 31 31 31 31 31 30 30 30 30 30 31 31 31 30 30 30 31 30 30 29 29 29 30 30 30 30 30 30 29 27 26 24 23 21 19 18 17 16 15 13 11 9 8 9 11 13 14 16 17 19 20 20 21 21 20 18 15 14 13 14 15 16 16 15 15 18 21 22 22 21 21 20 21 23 25 28
27 27 27 28 28 29 29 30 30 30 30 31 31 32 32 32 32 31 31 31 31 32 31 31 30 30 30 30 30 30 30 30 30 30 30 30 30 30 30 29 28 27 27 26 25 24 23 21 19 15 11 8 7 7 10 12 15 16 17 18 18 18 19 19 20 19 18 17 16 15 14 15 15 15 15 18 20 22 23 22 22 21 21 22 25 28
Wind_Direction
275 274 273 272 272 272 272 273 276 279 281 280 277 274 270 266 263 260 259 259 260 262 263 264 264 262 260 259 258 257 257 258 259 261 263 263 264 263 262 261 259 258 257 256 253 250 247 244 242 242 243 244 245 247 248 251 251 249 245 241 238 236 236 237 238 238 239 239 240 240 241 241 241 241 241 242 243 243 244 245 245 246 246 246 247 247
279 278 276 274 273 273 271 271 272 274 277 277 276 275 273 271 267 264 260 258 258 259 261 263 264 264 263 262 261 259 257 255 256 258 260 261 261 261 261 259 258 256 255 254 253 251 250 248 246 246 245 246 246 246 247 250 250 248 243 239 237 236 236 237 237 238 238 239 240 240 241 241 241 241 241 241 242 242 243 244 244 245 245 246 246 247
285 284 282 280 278 277 275 272 270 270 271 273 273 272 271 269 268 266 264 261 259 258 258 260 263 265 264 264 263 261 259 256 254 255 257 258 258 258 257 257 255 253 251 250 250 251 251 250 249 248 248 247 246 246 247 249 250 246 241 238 236 235 236 236 237 238 238 239 240 241 241 241 241 241 241 241 242 242 243 243 244 245 245 246 246 246
290 289 287 286 284 281 278 275 272 270 269 268 269 269 268 266 265 264 264 262 261 259 258 258 260 262 263 263 262 261 260 258 256 255 255 255 255 255 254 254 253 251 249 248 247 248 250 250 250 249 248 248 246 245 246 249 249 245 240 236 235 235 235 236 236 237 238 239 240 241 242 242 242 243 243 243 243 243 243 244 245 245 246 246 246 246
300 298 295 293 290 286 282 279 276 272 269 267 266 266 266 264 261 259 260 260 261 260 259 258 258 259 260 261 261 261 261 260 259 257 256 255 254 254 254 253 253 251 250 248 246 246 247 248 248 248 248 247 246 246 246 249 248 244 238 236 234 234 234 235 235 236 237 239 240 241 242 243 243 244 245 245 244 244 244 244 245 247 247 247 247 247
313 311 309 307 303 299 296 292 288 282 276 270 266 264 264 262 258 255 254 256 260 263 263 262 261 261 260 260 260 260 260 261 260 259 257 255 254 254 254 254 253 253 251 249 247 246 247 247 247 247 247 247 246 246 247 248 247 242 238 236 235 234 234 234 234 235 236 237 238 240 241 242 243 244 244 245 245 244 244 244 245 247 248 248 247 247
317 316 316 313 310 307 306 305 304 300 293 284 276 270 266 263 259 254 249 248 254 261 264 265 264 264 263 262 262 261 260 260 259 259 258 256 254 253 253 252 252 252 251 249 249 249 250 249 248 247 246 246 246 246 247 247 245 241 237 236 235 234 234 233 233 233 234 235 236 237 239 240 242 243 244 244 244 244 244 243 244 246 247 247 247 247
320 319 318 318 315 312 309 310 312 313 307 301 296 290 282 275 267 257 246 239 238 242 247 252 254 257 259 261 262 263 262 260 259 257 256 255 254 253 252 252 252 252 251 249 250 252 253 252 250 248 246 245 244 245 245 244 242 239 237 236 235 234 233 232 231 231 231 231 232 234 236 238 240 243 244 245 245 245 245 244 244 245 247 247 247 247
323 322 322 322 323 321 317 316 318 318 313 309 308 306 302 295 285 272 253 238 231 230 234 238 241 243 246 249 254 258 261 261 260 258 256 254 253 253 253 254 255 254 252 250 250 253 254 253 250 248 246 244 243 243 242 241 239 237 235 235 234 233 231 229 228 227 226 227 228 230 232 235 238 241 244 245 246 246 246 245 245 245 247 248 248 248
324 324 324 325 327 327 324 324 322 317 310 309 309 308 306 302 298 292 281 266 256 251 249 249 248 244 241 241 243 247 252 258 260 260 259 257 255 255 256 257 257 256 253 251 251 253 254 252 249 246 244 242 241 240 239 237 236 234 233 232 231 230 228 226 224 223 224 225 226 228 230 232 235 239 242 245 247 247 247 246 246 246 247 248 248 247
324 324 325 327 329 330 328 326 320 313 307 305 303 301 298 299 301 303 301 295 291 290 289 290 286 277 264 254 247 245 246 252 260 265 264 262 261 260 260 260 259 257 254 251 252 253 253 251 248 245 242 240 238 237 235 234 232 231 231 230 228 227 225 223 223 223 224 225 227 228 230 232 234 238 241 244 247 249 250 249 248 248 248 249 250 249
324 324 325 326 329 330 327 321 314 310 308 307 306 304 301 300 302 307 310 307 305 302 300 300 301 303 306 310 305 284 255 244 246 255 259 260 260 261 261 262 261 258 255 252 251 252 252 250 247 243 240 237 235 234 232 231 230 230 229 229 228 227 226 225 225 226 227 228 229 230 231 233 235 238 241 244 247 249 251 251 251 250 250 251 251 251
324 324 324 325 327 327 323 318 315 315 315 316 317 316 313 309 307 308 309 309 308 305 304 302 300 300 305 316 319 311 285 248 230 227 230 236 241 245 250 254 257 257 256 253 252 251 249 248 245 242 238 236 234 232 231 230 229 229 230 231 231 231 231 231 230 230 231 231 231 232 233 234 236 238 241 243 246 249 251 253 253 253 252 252 252 252
325 324 323 324 325 324 321 320 320 321 322 322 320 316 312 310 308 308 309 309 308 306 305 304 301 297 295 300 303 300 290 273 250 231 222 221 223 227 231 237 243 248 252 253 253 251 248 246 244 241 239 237 235 233 232 231 231 231 232 233 234 235 235 235 235 235 235 235 235 234 234 235 236 238 240 243 245 248 251 253 254 254 254 254 253 253
326 325 325 325 324 323 322 322 323 323 323 321 318 315 312 311 310 311 312 312 311 309 307 304 300 296 291 294 296 295 292 289 286 276 256 235 227 227 230 230 233 237 242 247 250 251 249 247 245 243 241 240 239 237 236 235 234 234 234 235 236 236 237 237 238 239 240 240 239 238 237 236 237 238 240 242 244 247 250 253 254 255 255 255 254 254
327 326 327 326 324 323 323 323 324 324 323 321 319 318 317 316 315 315 315 314 314 313 312 310 306 299 291 288 290 294 295 296 299 301 296 275 256 247 246 239 235 234 234 238 243 246 248 249 248 246 245 244 243 242 241 239 238 237 237 237 237 238 239 239 241 242 243 243 243 241 240 239 238 239 240 242 244 247 249 252 254 255 255 255 255 255
330 329 328 327 325 324 324 323 323 324 324 323 322 321 320 319 318 317 316 315 315 315 315 314 313 308 299 291 288 289 293 298 303 306 306 298 289 284 285 266 252 243 238 236 238 241 245 247 248 249 248 247 247 246 246 245 243 241 240 240 240 240 240 241 242 243 244 245 245 245 244 243 242 242 244 245 247 248 250 252 253 254 254 254 254 254
333 333 332 331 329 327 325 324 324 324 323 322 322 321 320 319 319 318 317 316 316 316 315 314 312 310 306 301 294 290 293 300 305 307 306 303 299 299 306 301 285 267 256 246 241 240 241 244 246 248 248 248 248 248 248 248 246 245 243 243 242 242 242 243 243 244 245 246 246 247 247 247 247 248 249 250 251 251 251 252 253 253 254 253 253 253
335 335 336 335 331 327 324 323 322 321 320 319 319 318 318 319 319 318 317 317 316 315 314 313 310 307 306 302 297 294 297 304 308 308 306 304 301 301 307 312 312 303 286 264 249 242 241 243 246 248 249 247 246 246 246 246 246 245 244 243 243 243 244 245 246 247 247 247 248 248 249 249 250 252 253 253 254 253 252 251 251 252 252 252 252 252
335 336 337 334 329 324 320 318 317 317 316 316 316 316 316 317 317 317 317 317 316 314 313 312 310 307 306 304 302 303 306 310 311 310 307 305 303 302 304 308 309 305 297 281 263 249 242 239 240 243 246 246 246 245 244 244 244 244 244 244 244 245 247 248 249 250 250 249 249 249 250 250 251 252 253 253 253 252 251 250 250 250 251 251 252 252
332 332 332 327 321 316 314 312 314 316 316 316 315 315 315 315 315 315 316 316 315 315 314 312 310 309 309 308 308 311 314 317 317 314 310 307 304 302 302 304 304 302 297 290 282 266 247 238 236 236 239 242 244 245 245 245 245 245 245 246 247 248 250 251 251 251 251 250 250 250 250 250 251 251 251 250 250 250 249 249 249 249 250 251 251 251
326 322 317 311 308 308 309 311 313 315 315 315 316 316 314 313 313 314 314 315 315 315 314 312 310 309 310 309 311 314 318 322 322 318 313 307 303 300 300 302 303 302 299 295 294 290 278 256 242 236 235 237 240 243 246 246 247 247 247 248 249 250 251 251 251 251 251 250 250 249 249 249 249 249 248 248 248 248 248 248 249 249 250 250 251 250
310 305 303 303 306 308 310 311 312 314 314 313 312 311 310 309 309 310 311 312 312 312 310 308 308 308 309 310 313 316 320 324 324 318 312 305 301 300 300 303 305 304 300 296 296 297 296 283 260 242 235 235 237 241 244 246 248 248 249 249 249 250 250 250 249 249 249 249 249 249 248 248 247 247 247 247 247 247 247 247 248 249 250 250 250 249
304 304 308 311 313 313 312 311 312 312 312 310 307 306 305 304 302 301 302 303 304 305 305 305 306 307 309 313 315 317 319 322 323 319 312 305 303 304 304 307 309 308 303 298 295 296 299 296 283 260 243 236 235 237 240 243 246 249 250 251 251 251 251 250 249 249 248 248 248 248 247 247 246 246 246 246 246 246 246 247 248 249 250 251 250 248
313 317 320 321 319 316 313 311 309 308 307 306 306 307 307 303 297 294 293 294 297 300 303 305 308 311 314 317 317 318 318 320 322 321 316 310 309 311 312 314 316 314 307 300 297 296 299 300 298 288 265 247 238 235 236 239 243 247 250 252 253 254 253 252 251 250 249 249 248 248 248 247 247 246 246 246 246 246 246 247 248 249 251 251 249 246
322 324 326 325 322 318 313 309 305 303 301 302 305 309 308 301 296 293 293 295 298 301 305 310 313 315 316 317 318 318 318 319 322 323 319 314 313 315 318 321 320 313 306 300 298 297 298 301 307 313 307 282 255 241 235 236 239 244 248 251 253 255 255 255 254 253 252 251 250 250 249 249 248 248 247 247 247 247 247 248 249 250 250 249 247 244
325 327 328 327 325 321 316 310 305 302 300 301 304 305 302 298 297 299 301 302 302 304 309 314 316 315 316 317 317 316 315 319 322 323 320 316 316 317 319 319 314 307 302 299 297 296 296 297 305 320 331 322 295 260 242 239 240 243 247 249 252 254 255 255 255 255 254 253 253 252 252 251 250 249 249 248 248 248 248 249 249 249 248 247 244 242
325 327 328 329 328 325 321 316 311 307 304 303 302 300 298 298 302 308 312 308 305 307 312 315 316 316 316 316 313 310 310 317 320 317 311 311 312 313 312 311 308 306 305 302 299 295 292 289 292 302 315 322 321 299 261 250 249 249 250 251 252 253 253 253 253 252 252 252 252 251 251 251 250 250 250 249 249 249 250 250 250 249 247 245 241 238
323 326 329 330 330 328 325 321 317 313 309 307 305 303 302 302 308 313 313 308 307 311 315 314 313 313 314 312 309 307 308 311 310 303 300 300 301 302 302 304 306 309 311 310 305 299 291 284 281 284 292 303 317 337 342 277 260 256 253 251 250 250 250 249 249 248 247 247 247 247 247 247 247 248 248 248 249 249 249 249 249 248 246 242 238 234
323 326 328 329 329 328 327 325 323 320 317 313 310 308 306 305 306 307 306 305 308 313 315 313 312 312 313 312 312 311 308 303 297 294 295 297 297 297 298 299 301 307 314 317 316 311 301 288 279 277 281 288 298 317 348 360 335 285 255 242 239 239 240 241 241 241 241 241 241 241 241 242 242 243 244 245 245 245 246 246 245 244 242 238 235 233
322 325 328 328 327 327 326 325 325 324 323 321 318 315 311 307 305 303 302 305 309 312 313 312 311 311 311 313 314 312 305 298 296 297 298 300 299 298 298 297 297 299 307 314 320 320 312 301 288 279 277 281 287 295 306 315 318 312 293 257 233 226 226 228 229 231 233 234 235 235 235 235 236 236 237 238 239 239 240 240 239 238 236 234 232 232
321 324 326 327 326 325 324 324 324 324 325 326 327 325 321 314 308 304 304 305 308 311 312 311 310 309 308 309 308 304 300 297 299 303 304 304 302 299 297 296 295 295 296 302 310 315 313 308 298 288 282 283 285 288 293 300 305 307 303 294 277 257 238 227 223 223 224 226 228 229 229 229 230 230 231 232 232 233 234 234 234 233 232 232 232 233
321 323 324 325 324 324 324 323 323 324 325 328 329 330 329 323 315 307 302 300 301 305 309 311 311 310 309 307 305 301 298 299 302 306 308 308 306 303 300 298 297 295 293 294 298 302 305 304 301 296 291 288 288 289 291 294 298 302 304 303 297 290 278 261 240 228 223 222 223 225 226 227 228 228 228 229 229 230 230 231 231 231 232 232 233 233
321 323 324 325 325 325 324 324 324 325 327 328 330 330 331 329 324 317 309 302 299 298 299 304 307 309 310 309 306 303 300 302 306 311 313 313 311 308 305 303 302 300 298 297 297 299 299 299 300 300 298 293 291 291 293 294 295 298 302 305 306 303 297 289 278 261 241 228 223 223 225 226 227 229 229 229 229 230 230 230 231 232 232 233 233 233
324 325 326 327 328 328 328 327 327 328 329 330 330 330 330 330 329 327 323 317 310 303 298 296 298 300 303 305 305 303 301 304 309 315 317 316 314 311 310 309 309 308 305 302 302 302 302 300 301 302 303 300 297 294 294 294 294 295 297 302 307 310 306 301 295 288 277 256 236 226 224 225 227 229 230 230 231 231 231 231 231 232 232 233 233 232
332 333 333 334 334 334 333 332 332 332 332 331 331 331 330 330 329 330 331 330 325 318 309 301 296 294 294 296 298 299 300 304 309 313 315 315 314 314 315 315 315 313 309 307 306 306 305 303 302 303 305 305 304 301 298 297 295 293 293 296 302 308 310 307 302 297 292 282 264 242 228 226 226 228 230 231 232 232 232 232 232 232 232 233 233 232
341 342 341 340 339 338 338 337 337 336 334 333 332 332 331 331 331 331 332 333 333 329 322 315 307 300 296 294 294 296 299 303 307 310 310 308 310 314 317 316 314 312 311 311 310 308 306 307 307 306 306 307 307 306 304 300 298 296 294 294 299 306 310 309 306 302 296 288 279 265 245 232 228 228 229 231 233 234 234 234 234 234 234 234 234 233
347 347 347 345 342 341 341 341 340 339 337 336 336 335 334 333 333 333 334 334 334 333 330 326 321 316 310 305 302 301 302 304 307 307 302 296 301 309 312 311 308 306 306 306 305 305 306 309 310 309 310 308 307 306 304 302 300 299 298 297 299 303 306 307 306 303 298 292 286 278 265 247 234 230 230 232 235 237 237 237 235 235 235 235 235 234
350 349 349 347 344 343 343 343 342 342 341 340 339 338 337 336 335 336 336 336 336 335 334 332 331 330 327 324 319 315 311 310 309 306 298 291 292 299 304 305 305 302 299 297 295 296 299 302 304 306 309 309 309 308 305 302 300 298 297 296 296 297 299 302 304 303 301 298 293 285 277 265 250 238 233 237 241 243 242 239 236 235 234 234 233 233
351 350 349 347 346 346 346 346 345 345 344 343 342 341 340 339 339 338 338 337 337 337 336 335 334 334 335 336 335 332 327 321 316 310 304 296 292 294 299 304 305 303 299 295 292 290 289 290 291 294 299 304 308 310 310 306 301 298 297 297 296 295 295 298 301 303 303 301 298 292 285 278 269 259 251 251 254 254 249 244 239 235 233 232 231 229
351 350 349 348 349 351 352 350 349 348 347 347 346 346 347 347 346 344 342 341 341 340 339 337 336 335 336 338 341 343 343 337 328 320 314 307 301 298 300 305 307 306 303 298 293 288 285 285 285 286 288 293 299 304 306 305 303 302 300 299 296 294 292 293 295 297 299 299 298 295 291 286 280 275 272 271 270 265 258 251 244 239 235 233 232 229
350 349 349 350 352 353 353 351 351 350 350 350 351 353 354 353 351 348 346 345 345 345 344 343 341 340 339 339 340 344 348 348 343 332 321 314 309 307 307 310 312 311 308 303 296 289 284 282 281 282 283 287 292 296 298 298 299 300 301 300 298 294 290 288 288 291 295 296 298 298 296 292 288 284 281 281 279 274 264 256 250 244 240 237 234 232
349 349 351 353 354 355 354 354 354 354 354 354 354 355 356 355 353 351 348 347 347 347 346 345 345 344 343 341 339 340 344 350 351 345 329 316 308 306 308 312 318 319 316 312 305 294 283 279 278 278 279 281 285 289 292 293 294 294 295 297 297 296 294 289 287 289 292 296 299 301 300 298 295 291 287 285 283 281 275 265 256 249 245 242 238 235
350 351 353 355 355 355 355 356 357 356 356 354 354 355 356 355 354 352 350 348 347 347 347 347 346 345 344 342 341 341 341 345 350 352 342 322 308 303 302 301 304 307 308 312 312 306 293 285 280 278 277 278 280 283 286 289 290 290 291 290 288 286 284 281 279 280 284 289 293 296 299 301 301 297 292 288 285 284 284 279 268 256 248 245 242 239
351 352 353 354 355 355 355 355 356 356 355 354 354 355 356 355 355 353 351 349 348 348 348 348 347 346 344 343 342 342 342 342 345 350 351 338 318 305 300 298 297 295 295 299 303 305 304 300 294 287 282 279 279 281 284 286 289 291 292 294 292 286 280 275 272 271 272 276 280 284 288 294 297 297 294 289 285 283 285 285 279 268 256 249 246 243
351 351 352 353 353 353 353 354 354 354 353 353 354 354 356 356 355 353 351 350 349 349 349 349 347 345 343 342 343 343 343 343 344 346 349 347 336 319 307 301 298 297 296 296 295 296 298 301 302 298 292 286 282 281 282 285 290 293 296 299 301 300 293 285 278 273 270 270 271 274 278 283 289 292 291 288 285 282 281 282 280 274 267 258 252 247
350 351 351 351 352 352 352 353 353 352 352 352 352 353 354 355 354 353 351 350 350 350 349 349 347 345 342 342 342 342 342 342 343 345 346 347 344 337 327 315 307 302 300 298 296 295 294 296 298 299 298 295 291 288 285 287 291 296 299 301 302 303 301 297 291 283 277 273 271 271 273 276 281 285 287 287 285 281 278 277 275 272 268 263 258 252
349 350 350 350 350 351 351 351 351 351 351 350 350 351 352 353 352 351 350 350 350 350 350 349 346 344 342 341 341 342 341 340 340 342 345 345 345 344 341 334 326 316 307 302 298 295 293 292 293 295 297 297 296 296 295 295 298 302 304 304 304 304 302 300 298 293 285 278 273 270 268 267 270 277 284 286 285 282 278 275 270 265 261 258 256 252
349 348 348 348 348 348 349 350 350 349 349 349 348 348 349 351 351 350 349 350 350 350 349 347 344 343 342 341 341 342 341 339 339 340 342 343 343 344 345 343 339 333 324 316 308 302 295 289 286 287 290 295 298 302 306 307 309 311 311 307 306 305 305 304 302 299 293 284 277 270 265 260 259 265 277 282 283 281 277 273 268 262 256 251 249 247
347 346 345 345 345 346 347 347 347 347 346 346 346 346 347 348 349 349 349 349 348 348 347 346 344 342 341 340 340 340 339 338 337 338 339 340 341 342 344 346 346 344 339 334 328 321 312 302 290 279 274 280 293 305 312 315 317 316 313 310 308 309 309 309 307 306 303 296 287 277 267 260 255 257 265 274 278 277 275 271 267 261 255 248 243 240
345 344 344 344 344 344 344 344 344 343 343 343 343 344 345 346 347 348 348 347 346 346 346 345 343 341 339 338 338 338 338 337 336 336 337 339 340 341 343 346 348 348 346 344 341 338 334 327 316 300 276 261 270 295 311 320 322 318 313 309 308 309 310 311 311 311 309 305 298 289 278 268 262 260 264 270 273 273 272 269 265 260 255 248 242 237
Height
1434 1433 1433 1433 1433 1432 1432 1432 1431 1430 1428 1427 1427 1427 1427 1427 1427 1427 1428 1429 1430 1430 1430 1429 1429 1429 1429 1429 1430 1430 1431 1432 1432 1433 1433 1433 1433 1434 1435 1435 1436 1437 1437 1438 1439 1440 1442 1443 1444 1446 1447 1448 1450 1452 1453 1454 1455 1456 1456 1457 1458 1459 1460 1462 1463 1464 1465 1466 1467 1468 1470 1471 1472 1473 1474 1475 1477 1478 1479 1480 1481 1482 1482 1483 1484 1485
1430 1430 1430 1430 1430 1430 1429 1429 1429 1428 1426 1425 1424 1424 1424 1424 1423 1424 1424 1425 1426 1426 1427 1426 1426 1426 1426 1426 1426 1427 1427 1428 1429 1429 1430 1430 1430 1430 1431 1431 1432 1433 1433 1434 1435 1436 1438 1439 1440 1442 1443 1445 1446 1448 1450 1451 1451 1452 1453 1453 1454 1455 1457 1458 1459 1461 1462 1463 1464 1465 1466 1467 1468 1470 1471 1472 1473 1475 1476 1477 1478 1479 1480 1481 1482 1482
1427 1427 1426 1426 1427 1427 1426 1425 1426 1425 1424 1423 1422 1422 1421 1421 1420 1420 1421 1421 1422 1423 1423 1423 1424 1423 1423 1423 1423 1423 1424 1424 1425 1425 1426 1426 1426 1427 1427 1427 1428 1429 1430 1430 1431 1432 1434 1435 1437 1438 1440 1441 1443 1444 1446 1447 1447 1448 1449 1450 1451 1452 1453 1454 1456 1457 1458 1459 1460 1461 1462 1463 1465 1466 1467 1469 1470 1471 1472 1474 1475 1476 1477 1478 1479 1480
1426 1425 1424 1424 1424 1424 1423 1422 1422 1422 1421 1420 1420 1419 1419 1418 1417 1417 1418 1418 1419 1419 1420 1420 1421 1421 1420 1420 1419 1420 1420 1420 1421 1422 1422 1422 1422 1423 1423 1423 1424 1425 1426 1427 1428 1429 1430 1432 1433 1435 1436 1437 1439 1440 1442 1442 1443 1444 1445 1446 1447 1448 1449 1451 1452 1453 1454 1455 1457 1457 1459 1460 1461 1462 1464 1465 1466 1468 1469 1471 1472 1473 1474 1475 1476 1477
1425 1424 1423 1423 1422 1421 1420 1420 1420 1419 1418 1418 1417 1417 1417 1416 1415 1414 1415 1415 1416 1416 1416 1417 1417 1417 1417 1417 1416 1416 1416 1417 1417 1418 1418 1419 1419 1419 1420 1419 1420 1420 1422 1423 1424 1425 1427 1428 1430 1431 1432 1433 1435 1436 1437 1438 1439 1440 1441 1442 1443 1445 1446 1447 1448 1450 1451 1452 1453 1454 1455 1457 1458 1459 1460 1461 1463 1465 1467 1469 1470 1471 1472 1472 1473 1474
1423 1422 1422 1421 1420 1419 1419 1419 1418 1417 1415 1415 1415 1415 1414 1413 1412 1411 1411 1412 1413 1413 1413 1414 1414 1414 1414 1413 1413 1413 1413 1413 1414 1414 1414 1415 1416 1416 1417 1416 1417 1417 1417 1419 1420 1421 1423 1424 1426 1427 1428 1429 1430 1432 1433 1434 1435 1436 1437 1438 1440 1441 1442 1443 1445 1446 1447 1448 1450 1451 1452 1453 1455 1456 1457 1459 1460 1462 1465 1466 1467 1468 1469 1469 1470 1472
1421 1421 1420 1420 1419 1418 1418 1417 1416 1415 1414 1413 1412 1412 1411 1410 1409 1408 1408 1408 1409 1410 1410 1411 1411 1411 1411 1410 1410 1410 1410 1410 1410 1410 1410 1411 1412 1412 1413 1413 1413 1413 1414 1415 1416 1417 1419 1420 1421 1423 1424 1425 1427 1428 1429 1430 1431 1432 1433 1434 1436 1437 1439 1440 1441 1442 1444 1445 1447 1448 1449 1450 1452 1453 1454 1456 1457 1460 1462 1463 1464 1465 1466 1467 1468 1469
1420 1419 1419 1418 1417 1416 1416 1416 1415 1414 1413 1411 1410 1409 1408 1407 1407 1406 1405 1404 1404 1404 1404 1405 1405 1406 1407 1407 1407 1407 1406 1406 1406 1406 1406 1407 1407 1408 1409 1409 1409 1410 1410 1411 1412 1413 1415 1416 1417 1418 1419 1421 1422 1423 1425 1426 1427 1428 1429 1430 1432 1434 1435 1436 1438 1439 1440 1442 1443 1445 1446 1448 1449 1450 1452 1453 1455 1457 1458 1460 1461 1462 1463 1464 1465 1467
1420 1419 1418 1417 1416 1415 1414 1414 1414 1413 1412 1410 1409 1408 1407 1405 1404 1403 1402 1401 1400 1399 1399 1398 1399 1399 1400 1401 1402 1402 1403 1403 1402 1402 1402 1403 1403 1404 1404 1405 1405 1406 1407 1407 1408 1409 1410 1411 1412 1413 1415 1416 1417 1419 1420 1421 1423 1424 1425 1427 1429 1431 1432 1433 1435 1436 1437 1439 1440 1442 1443 1445 1446 1447 1449 1450 1452 1453 1455 1457 1458 1460 1461 1462 1463 1464
1420 1419 1417 1416 1416 1415 1414 1413 1412 1412 1410 1409 1409 1408 1407 1405 1403 1401 1400 1399 1398 1397 1397 1396 1395 1395 1395 1396 1396 1397 1398 1399 1399 1400 1400 1400 1400 1400 1400 1401 1401 1402 1403 1404 1405 1405 1406 1407 1407 1409 1410 1412 1413 1415 1416 1418 1419 1420 1422 1424 1426 1427 1429 1430 1431 1433 1434 1435 1437 1438 1440 1441 1443 1444 1446 1447 1448 1450 1452 1453 1455 1457 1458 1459 1460 1461
1419 1418 1417 1416 1415 1414 1414 1412 1411 1410 1408 1408 1407 1407 1406 1405 1403 1401 1399 1396 1395 1395 1395 1394 1394 1394 1393 1393 1393 1393 1393 1394 1396 1397 1399 1398 1398 1397 1397 1397 1397 1398 1399 1400 1401 1401 1402 1403 1404 1405 1406 1408 1409 1411 1412 1414 1416 1417 1419 1421 1423 1425 1426 1427 1428 1429 1431 1432 1433 1435 1436 1438 1439 1441 1442 1444 1445 1447 1448 1450 1451 1453 1454 1455 1457 1458
1418 1417 1416 1415 1414 1413 1412 1411 1409 1408 1407 1406 1405 1404 1403 1402 1402 1401 1399 1396 1395 1393 1392 1392 1392 1393 1392 1391 1390 1390 1389 1389 1390 1392 1394 1396 1397 1397 1395 1395 1394 1394 1395 1396 1396 1397 1398 1399 1400 1401 1403 1404 1406 1407 1409 1411 1412 1414 1416 1418 1420 1422 1423 1424 1425 1426 1427 1429 1430 1431 1433 1434 1436 1437 1439 1440 1442 1443 1444 1446 1447 1449 1450 1452 1454 1455
1418 1417 1416 1414 1413 1412 1411 1409 1407 1406 1405 1404 1404 1402 1401 1400 1400 1399 1398 1396 1395 1393 1392 1391 1391 1391 1392 1391 1389 1388 1386 1386 1385 1385 1386 1387 1389 1390 1392 1392 1392 1392 1391 1392 1392 1393 1394 1395 1397 1398 1399 1401 1402 1404 1406 1407 1409 1411 1413 1415 1417 1419 1420 1421 1422 1423 1425 1426 1427 1428 1429 1431 1432 1434 1435 1437 1438 1440 1441 1442 1444 1445 1447 1448 1450 1452
1417 1416 1415 1414 1413 1412 1410 1409 1407 1405 1404 1404 1403 1402 1401 1400 1399 1398 1396 1395 1394 1392 1391 1390 1390 1390 1390 1390 1388 1386 1384 1383 1382 1382 1382 1382 1383 1383 1384 1385 1386 1387 1388 1388 1388 1388 1390 1392 1393 1394 1396 1397 1399 1401 1402 1404 1406 1408 1410 1412 1414 1416 1417 1418 1419 1420 1422 1423 1424 1425 1426 1427 1429 1430 1432 1433 1435 1436 1437 1439 1440 1441 1443 1444 1446 1448
1417 1415 1414 1413 1412 1411 1410 1408 1407 1406 1404 1403 1403 1402 1400 1399 1398 1397 1395 1393 1392 1390 1390 1388 1387 1387 1389 1389 1387 1385 1383 1382 1380 1379 1379 1379 1380 1380 1380 1380 1381 1382 1384 1385 1385 1385 1387 1388 1389 1390 1392 1394 1395 1397 1398 1400 1402 1404 1406 1409 1410 1412 1414 1415 1416 1417 1419 1420 1421 1422 1423 1424 1426 1427 1429 1430 1431 1433 1434 1435 1437 1438 1439 1441 1442 1444
1416 1415 1414 1413 1411 1410 1409 1408 1407 1405 1404 1403 1402 1401 1399 1398 1396 1395 1395 1393 1391 1389 1388 1387 1385 1384 1385 1386 1386 1385 1382 1381 1379 1378 1377 1376 1377 1378 1378 1378 1378 1378 1380 1381 1382 1383 1384 1385 1385 1386 1388 1389 1391 1393 1395 1396 1398 1400 1402 1404 1406 1408 1409 1411 1412 1414 1415 1416 1417 1419 1420 1421 1422 1424 1425 1427 1428 1429 1431 1432 1433 1435 1436 1437 1439 1440
1416 1415 1414 1412 1411 1410 1409 1408 1407 1405 1404 1402 1401 1400 1399 1398 1396 1395 1394 1392 1391 1389 1388 1387 1386 1384 1382 1382 1383 1383 1382 1380 1379 1378 1376 1375 1375 1376 1377 1376 1376 1376 1377 1378 1379 1380 1382 1382 1383 1383 1384 1385 1387 1389 1391 1392 1394 1396 1398 1400 1401 1403 1405 1406 1408 1409 1411 1412 1414 1415 1416 1417 1419 1420 1422 1423 1424 1426 1427 1428 1429 1431 1432 1433 1435 1437
1416 1415 1413 1412 1411 1409 1408 1407 1406 1405 1404 1402 1401 1399 1398 1397 1396 1395 1394 1392 1391 1390 1388 1387 1386 1385 1383 1380 1380 1380 1381 1380 1378 1377 1376 1374 1374 1375 1375 1375 1374 1374 1375 1376 1376 1377 1378 1379 1380 1381 1381 1382 1384 1385 1387 1389 1390 1392 1394 1395 1396 1398 1400 1401 1403 1405 1406 1408 1409 1411 1412 1413 1415 1416 1417 1419 1420 1422 1423 1424 1425 1426 1428 1429 1431 1433
1415 1415 1413 1412 1411 1409 1408 1407 1406 1405 1403 1402 1400 1399 1397 1396 1395 1395 1393 1392 1391 1390 1388 1387 1385 1384 1383 1381 1379 1378 1380 1379 1378 1376 1375 1373 1372 1373 1374 1373 1372 1371 1371 1372 1372 1372 1374 1375 1377 1378 1379 1379 1380 1382 1383 1385 1387 1388 1389 1391 1392 1394 1395 1397 1398 1400 1401 1403 1405 1406 1407 1409 1410 1411 1412 1414 1415 1416 1418 1419 1420 1422 1423 1425 1426 1428
1415 1414 1413 1412 1411 1409 1407 1406 1406 1404 1403 1401 1400 1398 1397 1395 1395 1394 1392 1391 1390 1389 1387 1386 1384 1383 1382 1380 1378 1378 1378 1378 1377 1376 1374 1372 1371 1371 1372 1372 1371 1369 1368 1368 1368 1369 1370 1370 1370 1372 1374 1375 1376 1377 1379 1380 1382 1383 1385 1386 1387 1389 1391 1392 1393 1395 1396 1398 1399 1401 1402 1404 1405 1406 1408 1409 1410 1412 1413 1414 1415 1417 1418 1420 1422 1424
1415 1414 1414 1413 1411 1409 1407 1406 1405 1404 1402 1401 1399 1398 1396 1395 1394 1392 1392 1390 1389 1387 1386 1385 1383 1382 1381 1379 1378 1377 1378 1377 1377 1375 1372 1371 1370 1370 1371 1371 1369 1367 1366 1365 1366 1366 1366 1365 1365 1365 1365 1368 1370 1372 1373 1375 1377 1378 1380 1381 1383 1384 1386 1387 1388 1390 1391 1393 1395 1396 1398 1399 1401 1402 1403 1405 1406 1407 1408 1409 1410 1412 1414 1415 1417 1419
1416 1414 1413 1412 1411 1409 1407 1405 1404 1402 1401 1400 1399 1397 1396 1395 1393 1392 1390 1389 1388 1387 1385 1384 1382 1381 1380 1379 1377 1377 1377 1377 1377 1375 1373 1370 1368 1367 1369 1369 1368 1367 1365 1364 1363 1363 1362 1362 1362 1362 1362 1363 1365 1366 1368 1369 1371 1373 1375 1376 1378 1380 1381 1382 1384 1385 1387 1388 1390 1392 1393 1395 1396 1397 1399 1400 1401 1402 1404 1405 1406 1408 1410 1411 1413 1414
1415 1413 1412 1410 1409 1408 1406 1404 1402 1401 1400 1400 1399 1397 1396 1395 1393 1391 1390 1389 1387 1386 1384 1383 1381 1380 1379 1378 1377 1376 1376 1377 1376 1375 1374 1370 1367 1365 1367 1368 1367 1365 1363 1362 1362 1361 1360 1359 1358 1358 1358 1359 1360 1362 1363 1365 1366 1368 1370 1371 1373 1375 1376 1377 1379 1381 1382 1384 1385 1387 1388 1390 1391 1393 1394 1395 1397 1398 1399 1401 1402 1404 1405 1407 1408 1410
1413 1412 1410 1409 1408 1406 1405 1403 1402 1401 1400 1399 1397 1396 1395 1394 1392 1391 1390 1388 1387 1385 1384 1382 1380 1379 1377 1377 1376 1376 1375 1376 1376 1375 1373 1370 1366 1365 1365 1366 1365 1364 1362 1360 1360 1359 1358 1357 1356 1355 1355 1356 1357 1358 1360 1361 1362 1364 1365 1367 1368 1370 1371 1373 1374 1376 1377 1379 1380 1382 1384 1385 1387 1388 1389 1391 1392 1394 1395 1397 1398 1400 1401 1402 1404 1405
1412 1410 1409 1408 1407 1405 1404 1402 1401 1400 1399 1397 1396 1395 1394 1392 1391 1390 1388 1387 1386 1385 1383 1381 1380 1378 1377 1376 1376 1375 1375 1375 1375 1374 1372 1369 1366 1364 1364 1365 1364 1362 1360 1358 1358 1357 1357 1356 1355 1354 1353 1354 1354 1355 1356 1358 1359 1361 1362 1363 1365 1366 1367 1369 1370 1371 1373 1374 1376 1377 1379 1380 1382 1383 1385 1386 1388 1389 1391 1392 1394 1395 1397 1398 1400 1401
1410 1409 1408 1407 1405 1404 1403 1402 1401 1400 1398 1397 1396 1395 1393 1391 1389 1388 1387 1386 1385 1384 1382 1381 1379 1378 1377 1376 1375 1375 1374 1374 1374 1373 1372 1369 1366 1363 1363 1363 1363 1361 1358 1356 1356 1356 1356 1355 1354 1353 1352 1353 1353 1353 1354 1355 1356 1358 1359 1360 1362 1363 1364 1365 1366 1367 1368 1370 1371 1372 1374 1375 1377 1379 1380 1382 1383 1385 1386 1388 1390 1391 1393 1394 1396 1398
1409 1408 1407 1406 1404 1403 1402 1401 1400 1398 1397 1396 1395 1394 1392 1390 1388 1387 1386 1385 1384 1383 1382 1380 1379 1377 1376 1375 1375 1374 1373 1373 1373 1372 1371 1369 1366 1364 1362 1362 1362 1360 1357 1355 1354 1354 1355 1354 1354 1353 1352 1352 1352 1352 1352 1352 1354 1355 1357 1358 1359 1360 1361 1361 1362 1363 1364 1365 1367 1368 1369 1371 1372 1374 1376 1377 1379 1381 1382 1384 1385 1387 1389 1391 1393 1394
1407 1406 1405 1404 1403 1402 1401 1400 1399 1397 1396 1395 1394 1393 1391 1390 1388 1387 1385 1384 1383 1383 1382 1380 1379 1377 1376 1375 1374 1373 1372 1372 1372 1371 1370 1368 1366 1364 1362 1361 1360 1359 1357 1354 1353 1353 1353 1354 1353 1352 1351 1351 1351 1350 1350 1350 1352 1353 1354 1355 1356 1357 1358 1358 1359 1360 1361 1361 1362 1364 1365 1367 1368 1370 1371 1373 1375 1377 1378 1380 1381 1383 1385 1388 1389 1391
1405 1404 1404 1403 1402 1401 1400 1399 1398 1397 1396 1394 1393 1392 1391 1389 1388 1387 1385 1384 1383 1382 1381 1380 1379 1377 1376 1374 1372 1371 1372 1372 1372 1370 1368 1366 1364 1362 1361 1360 1359 1358 1357 1354 1351 1350 1351 1352 1352 1352 1350 1349 1347 1346 1345 1347 1349 1351 1352 1353 1353 1354 1355 1355 1356 1356 1357 1358 1359 1360 1361 1363 1365 1366 1368 1369 1371 1373 1374 1376 1378 1380 1382 1384 1385 1387
1403 1402 1402 1401 1400 1400 1399 1398 1397 1396 1395 1393 1392 1391 1390 1389 1387 1386 1385 1384 1383 1382 1381 1379 1378 1377 1375 1373 1371 1370 1370 1370 1370 1368 1367 1366 1363 1361 1360 1360 1359 1358 1357 1355 1352 1349 1347 1348 1350 1350 1348 1347 1345 1343 1342 1343 1346 1347 1348 1349 1350 1350 1351 1352 1352 1353 1353 1354 1355 1356 1358 1359 1361 1362 1364 1365 1367 1369 1370 1372 1374 1376 1378 1380 1381 1382
1401 1400 1400 1399 1399 1398 1397 1396 1395 1394 1393 1392 1391 1390 1389 1387 1386 1385 1384 1383 1382 1381 1380 1379 1377 1376 1375 1374 1372 1370 1368 1367 1367 1367 1367 1365 1363 1361 1360 1359 1358 1357 1358 1357 1355 1351 1347 1345 1346 1347 1346 1345 1343 1342 1342 1343 1344 1344 1345 1345 1346 1347 1348 1348 1349 1349 1350 1351 1352 1353 1354 1356 1357 1358 1360 1361 1363 1365 1367 1369 1371 1373 1374 1375 1377 1378
1400 1400 1399 1398 1397 1396 1395 1394 1393 1392 1392 1391 1390 1389 1388 1387 1385 1384 1383 1382 1381 1380 1379 1378 1377 1375 1374 1374 1372 1370 1367 1365 1365 1366 1365 1364 1362 1360 1360 1359 1357 1357 1357 1357 1356 1355 1351 1346 1344 1343 1343 1343 1342 1341 1342 1343 1343 1344 1344 1345 1345 1346 1346 1347 1347 1347 1348 1348 1349 1350 1351 1353 1354 1355 1357 1358 1360 1361 1363 1365 1367 1369 1370 1372 1373 1374
1400 1399 1398 1397 1396 1395 1394 1393 1392 1391 1390 1389 1388 1387 1386 1385 1384 1383 1382 1381 1380 1380 1378 1377 1376 1374 1373 1372 1370 1368 1366 1365 1365 1365 1364 1363 1361 1359 1358 1358 1357 1356 1356 1355 1355 1354 1352 1349 1345 1343 1342 1341 1341 1341 1341 1342 1343 1344 1344 1345 1345 1345 1346 1346 1346 1346 1346 1347 1347 1348 1349 1350 1351 1352 1354 1355 1357 1358 1360 1362 1364 1365 1367 1368 1369 1370
1399 1398 1397 1396 1395 1394 1393 1392 1391 1390 1389 1388 1387 1386 1385 1384 1383 1382 1381 1380 1379 1378 1377 1376 1375 1374 1372 1370 1368 1366 1364 1364 1364 1364 1363 1362 1361 1359 1358 1357 1357 1356 1355 1354 1353 1352 1351 1349 1347 1345 1342 1340 1340 1340 1341 1341 1342 1343 1344 1344 1345 1345 1345 1345 1346 1345 1345 1346 1346 1346 1347 1348 1349 1350 1352 1353 1354 1356 1357 1359 1360 1362 1363 1364 1365 1367
1398 1397 1396 1395 1393 1392 1391 1390 1389 1388 1387 1386 1385 1384 1383 1382 1382 1381 1380 1379 1378 1377 1376 1375 1374 1373 1372 1370 1367 1365 1363 1362 1362 1363 1362 1362 1361 1359 1358 1357 1356 1356 1355 1353 1352 1351 1349 1347 1346 1346 1344 1341 1340 1339 1340 1340 1341 1342 1343 1344 1344 1345 1345 1345 1345 1345 1345 1345 1345 1345 1345 1346 1347 1348 1349 1350 1352 1353 1355 1356 1357 1359 1360 1361 1362 1364
1397 1396 1395 1394 1392 1391 1390 1389 1388 1387 1386 1385 1384 1383 1382 1381 1380 1379 1379 1378 1377 1376 1375 1374 1373 1372 1370 1369 1367 1365 1362 1361 1361 1361 1362 1361 1360 1359 1357 1356 1355 1355 1354 1353 1351 1350 1349 1347 1346 1345 1345 1343 1340 1339 1339 1339 1340 1341 1342 1342 1343 1344 1344 1345 1345 1345 1344 1344 1344 1343 1344 1344 1345 1345 1346 1348 1349 1350 1352 1353 1355 1356 1357 1358 1360 1361
1397 1395 1394 1393 1392 1390 1389 1388 1387 1386 1385 1384 1383 1382 1381 1380 1379 1378 1377 1376 1375 1375 1374 1372 1371 1370 1369 1368 1366 1364 1362 1361 1360 1360 1360 1360 1360 1359 1357 1355 1355 1354 1353 1352 1351 1349 1348 1347 1345 1344 1344 1343 1341 1340 1338 1338 1339 1339 1340 1341 1342 1343 1343 1344 1344 1344 1343 1343 1342 1342 1342 1342 1343 1343 1344 1345 1347 1348 1349 1351 1352 1353 1354 1356 1357 1358
1396 1395 1394 1392 1391 1390 1388 1387 1386 1385 1384 1383 1382 1380 1379 1378 1377 1376 1375 1375 1374 1373 1372 1371 1370 1369 1367 1366 1365 1364 1362 1361 1360 1360 1359 1359 1358 1357 1356 1355 1353 1353 1352 1351 1350 1349 1348 1346 1345 1344 1342 1342 1341 1340 1339 1338 1338 1338 1339 1340 1340 1341 1342 1342 1343 1343 1342 1341 1340 1340 1340 1340 1340 1341 1342 1343 1344 1345 1347 1348 1349 1350 1352 1353 1355 1356
1396 1395 1393 1392 1391 1389 1388 1387 1385 1384 1383 1382 1381 1380 1378 1377 1376 1375 1374 1373 1372 1371 1370 1369 1368 1367 1366 1365 1364 1363 1361 1360 1359 1359 1358 1358 1357 1356 1355 1354 1352 1351 1351 1350 1349 1348 1347 1346 1345 1343 1342 1341 1340 1339 1338 1338 1337 1337 1337 1338 1338 1339 1340 1341 1341 1341 1340 1340 1339 1338 1338 1338 1338 1339 1340 1341 1342 1343 1344 1345 1346 1347 1349 1350 1352 1353
1396 1395 1393 1392 1391 1389 1388 1387 1385 1384 1382 1381 1380 1379 1377 1376 1375 1374 1373 1372 1371 1370 1368 1367 1366 1365 1365 1364 1363 1362 1360 1359 1358 1357 1357 1356 1356 1355 1354 1353 1352 1350 1349 1349 1348 1347 1346 1345 1344 1343 1342 1341 1340 1338 1338 1337 1337 1337 1337 1337 1337 1337 1338 1339 1339 1339 1339 1338 1337 1337 1336 1336 1336 1337 1338 1339 1340 1341 1342 1343 1344 1345 1346 1347 1349 1350
1396 1395 1393 1392 1390 1389 1388 1386 1385 1383 1382 1381 1379 1378 1377 1375 1374 1372 1371 1370 1369 1368 1367 1365 1364 1363 1363 1362 1361 1361 1360 1358 1357 1357 1356 1355 1355 1354 1353 1352 1351 1350 1349 1347 1346 1346 1345 1344 1343 1342 1341 1340 1339 1338 1337 1337 1337 1337 1337 1337 1336 1336 1336 1337 1338 1338 1338 1337 1336 1335 1335 1335 1335 1335 1336 1337 1338 1339 1340 1341 1342 1343 1344 1345 1346 1347
1396 1395 1393 1391 1390 1388 1387 1386 1384 1383 1382 1380 1379 1378 1376 1375 1373 1372 1370 1369 1367 1366 1365 1364 1362 1361 1360 1359 1359 1359 1359 1358 1357 1356 1355 1354 1354 1353 1352 1351 1350 1349 1348 1346 1345 1344 1343 1343 1342 1341 1340 1339 1338 1337 1336 1336 1336 1336 1336 1336 1335 1335 1335 1335 1336 1336 1336 1335 1335 1334 1334 1333 1333 1334 1335 1336 1336 1337 1338 1339 1340 1340 1341 1342 1343 1345
1396 1395 1393 1391 1390 1388 1387 1385 1384 1382 1381 1380 1379 1377 1376 1375 1373 1371 1370 1368 1367 1365 1364 1363 1361 1360 1358 1357 1356 1356 1357 1357 1356 1355 1354 1353 1352 1351 1350 1350 1349 1347 1346 1345 1343 1342 1341 1341 1340 1340 1339 1338 1338 1337 1335 1335 1335 1335 1335 1335 1335 1335 1334 1333 1334 1335 1335 1334 1334 1333 1333 1332 1332 1332 1333 1334 1335 1335 1336 1336 1337 1338 1339 1340 1341 1342
1396 1394 1393 1391 1390 1388 1387 1385 1384 1382 1381 1379 1378 1377 1375 1374 1373 1371 1370 1368 1366 1365 1364 1362 1360 1359 1358 1356 1355 1354 1354 1354 1354 1354 1353 1352 1351 1350 1349 1348 1347 1346 1345 1344 1342 1341 1340 1339 1338 1338 1337 1337 1337 1336 1335 1334 1334 1334 1334 1334 1334 1334 1334 1333 1332 1333 1333 1333 1332 1332 1332 1332 1331 1331 1332 1332 1333 1333 1334 1334 1335 1336 1337 1338 1339 1340
1396 1394 1392 1391 1389 1388 1386 1385 1383 1382 1381 1379 1378 1376 1375 1374 1372 1371 1370 1368 1366 1365 1363 1362 1360 1359 1357 1355 1354 1353 1352 1352 1352 1352 1352 1351 1350 1349 1348 1347 1345 1344 1343 1343 1342 1341 1339 1338 1337 1336 1336 1336 1335 1335 1334 1334 1333 1333 1333 1333 1333 1332 1332 1331 1331 1331 1331 1330 1330 1330 1330 1331 1331 1331 1331 1331 1331 1332 1332 1333 1333 1334 1335 1336 1337 1339
1395 1394 1392 1390 1389 1387 1386 1385 1383 1382 1380 1379 1377 1376 1375 1373 1372 1371 1369 1368 1366 1364 1363 1362 1360 1359 1357 1355 1354 1352 1351 1350 1349 1349 1349 1349 1349 1348 1347 1346 1345 1343 1342 1342 1341 1340 1339 1338 1337 1335 1335 1334 1334 1333 1333 1333 1333 1332 1332 1332 1331 1331 1330 1330 1330 1329 1329 1328 1328 1328 1329 1330 1330 1330 1330 1330 1330 1331 1331 1331 1332 1332 1333 1335 1336 1337
1395 1393 1392 1390 1389 1387 1386 1385 1383 1381 1380 1378 1377 1376 1375 1373 1372 1370 1369 1367 1366 1364 1363 1361 1360 1359 1358 1356 1354 1353 1351 1349 1348 1347 1347 1347 1346 1346 1345 1344 1344 1343 1342 1341 1340 1339 1338 1337 1336 1335 1334 1333 1332 1332 1332 1332 1332 1332 1331 1331 1330 1330 1329 1328 1328 1328 1327 1327 1326 1327 1327 1328 1329 1329 1329 1329 1329 1330 1330 1330 1330 1331 1332 1333 1334 1335
1395 1393 1392 1390 1389 1387 1386 1384 1383 1381 1380 1378 1377 1375 1374 1373 1372 1370 1368 1367 1365 1364 1362 1361 1360 1358 1357 1356 1355 1353 1352 1350 1348 1347 1346 1345 1344 1344 1343 1342 1342 1341 1340 1339 1338 1337 1337 1336 1335 1335 1334 1333 1332 1332 1331 1332 1332 1331 1330 1330 1329 1329 1328 1327 1326 1326 1326 1325 1325 1325 1326 1327 1327 1328 1328 1328 1328 1328 1329 1329 1329 1330 1331 1332 1333 1334
1395 1393 1392 1390 1389 1387 1386 1384 1382 1381 1380 1378 1376 1375 1374 1372 1372 1370 1368 1367 1365 1364 1362 1361 1359 1358 1356 1355 1354 1353 1352 1350 1349 1347 1346 1345 1343 1342 1341 1340 1339 1338 1337 1337 1336 1335 1335 1334 1334 1334 1333 1333 1332 1332 1331 1331 1331 1330 1329 1329 1328 1328 1327 1326 1325 1324 1324 1324 1324 1324 1325 1326 1326 1327 1328 1328 1328 1327 1327 1328 1328 1329 1330 1331 1332 1333
1395 1393 1392 1390 1389 1387 1386 1384 1382 1381 1380 1378 1376 1375 1373 1372 1371 1370 1368 1367 1365 1364 1362 1361 1359 1357 1356 1355 1353 1352 1351 1350 1348 1347 1346 1345 1343 1342 1340 1339 1338 1336 1335 1334 1333 1332 1332 1331 1331 1332 1332 1332 1332 1332 1331 1330 1330 1329 1329 1328 1327 1327 1326 1325 1324 1323 1323 1323 1323 1323 1324 1324 1325 1326 1327 1327 1327 1327 1327 1327 1327 1328 1329 1330 1331 1332
1394 1393 1391 1390 1389 1387 1385 1384 1382 1381 1380 1378 1376 1375 1373 1371 1370 1368 1367 1366 1365 1363 1362 1360 1359 1358 1356 1354 1353 1352 1351 1349 1348 1346 1345 1344 1343 1342 1340 1339 1338 1336 1334 1333 1331 1330 1329 1328 1328 1328 1329 1331 1331 1331 1330 1330 1329 1328 1327 1327 1326 1325 1325 1324 1323 1322 1322 1322 1322 1322 1322 1323 1323 1324 1325 1326 1326 1326 1326 1325 1326 1326 1327 1329 1330 1331